Time,TemperatureF,DewpointF,PressureIn,WindDirection,WindDirectionDegrees,WindSpeedMPH,WindSpeedGustMPH,Humidity,HourlyPrecipIn,Conditions,Clouds,dailyrainin,SoftwareType,DateUTC
2013-02-15 00:02:00,64.0,63.0,30.01,NNW,335,13.0,19.0,95,-99.99,,,-99.99,,2013-02-15 05:02:00,
2013-02-15 00:12:00,64.0,63.0,30.01,NNW,335,13.0,19.0,95,-99.99,,,-99.99,,2013-02-15 05:12:00,
2013-02-15 00:22:00,64.0,63.0,30.00,NW,325,13.0,21.0,96,-99.99,,,-99.99,,2013-02-15 05:22:00,
2013-02-15 00:32:00,64.0,63.0,30.00,NNW,328,12.0,18.0,95,-99.99,,,-99.99,,2013-02-15 05:32:00,
2013-02-15 00:42:00,64.0,63.0,30.00,NNW,328,12.0,18.0,95,-99.99,,,-99.99,,2013-02-15 05:42:00,
2013-02-15 00:52:00,64.0,63.0,29.98,NW,326,12.0,19.0,96,-99.99,,,-99.99,,2013-02-15 05:52:00,
2013-02-15 01:02:00,64.0,63.0,29.98,NNW,335,12.0,19.0,96,-99.99,,,-99.99,,2013-02-15 06:02:00,
2013-02-15 01:11:00,64.0,63.0,29.98,NNE,13,11.0,20.0,96,-99.99,,,-99.99,,2013-02-15 06:11:00,
2013-02-15 01:22:00,64.0,63.0,29.98,NNE,13,11.0,20.0,96,-99.99,,,-99.99,,2013-02-15 06:22:00,
2013-02-15 01:32:00,65.0,64.0,29.97,NW,314,11.0,18.0,96,-99.99,,,-99.99,,2013-02-15 06:32:00,
2013-02-15 01:42:00,65.0,64.0,29.97,NW,314,11.0,18.0,96,-99.99,,,-99.99,,2013-02-15 06:42:00,
2013-02-15 01:52:00,65.0,64.0,29.98,NNW,338,10.0,14.0,96,-99.99,,,-99.99,,2013-02-15 06:52:00,
2013-02-15 02:01:00,66.0,65.0,29.97,NW,323,8.0,19.0,96,-99.99,,,-99.99,,2013-02-15 07:01:00,
2013-02-15 02:11:00,66.0,65.0,29.97,NW,323,8.0,19.0,96,-99.99,,,-99.99,,2013-02-15 07:11:00,
2013-02-15 02:21:00,66.0,65.0,29.97,NNW,343,10.0,16.0,96,-99.99,,,-99.99,,2013-02-15 07:21:00,
2013-02-15 02:32:00,67.0,66.0,29.96,SE,135,4.0,10.0,96,-99.99,,,-99.99,,2013-02-15 07:32:00,
2013-02-15 02:42:00,67.0,66.0,29.96,SE,135,4.0,10.0,96,-99.99,,,-99.99,,2013-02-15 07:42:00,
2013-02-15 02:52:00,67.0,66.0,29.96,SW,225,3.0,10.0,96,-99.99,,,-99.99,,2013-02-15 07:52:00,
2013-02-15 03:01:00,68.0,67.0,29.96,SSE,167,4.0,9.0,96,-99.99,,,-99.99,,2013-02-15 08:01:00,
2013-02-15 03:11:00,68.0,67.0,29.96,SSE,167,4.0,9.0,96,-99.99,,,-99.99,,2013-02-15 08:11:00,
2013-02-15 03:21:00,68.0,67.0,29.96,SW,214,1.0,5.0,96,-99.99,,,-99.99,,2013-02-15 08:21:00,
2013-02-15 03:32:00,67.0,66.0,29.96,SW,215,1.0,5.0,96,-99.99,,,-99.99,,2013-02-15 08:32:00,
2013-02-15 03:42:00,67.0,66.0,29.96,SW,215,1.0,5.0,96,-99.99,,,-99.99,,2013-02-15 08:42:00,
2013-02-15 03:53:00,68.0,67.0,29.96,SW,218,1.0,4.0,96,-99.99,,,-99.99,,2013-02-15 08:53:00,
2013-02-15 04:02:00,68.0,67.0,29.96,SW,231,2.0,8.0,96,-99.99,,,-99.99,,2013-02-15 09:02:00,
2013-02-15 04:12:00,68.0,67.0,29.96,SW,231,2.0,8.0,96,-99.99,,,-99.99,,2013-02-15 09:12:00,
2013-02-15 04:21:00,68.0,67.0,29.95,SSE,167,3.0,6.0,96,-99.99,,,-99.99,,2013-02-15 09:21:00,
2013-02-15 04:32:00,68.0,67.0,29.95,NNE,20,3.0,7.0,96,-99.99,,,-99.99,,2013-02-15 09:32:00,
2013-02-15 04:42:00,68.0,67.0,29.95,NNE,20,3.0,7.0,96,-99.99,,,-99.99,,2013-02-15 09:42:00,
2013-02-15 04:52:00,68.0,67.0,29.96,NW,304,3.0,9.0,96,-99.99,,,-99.99,,2013-02-15 09:52:00,
2013-02-15 05:01:00,68.0,67.0,29.95,South,172,2.0,6.0,96,-99.99,,,-99.99,,2013-02-15 10:01:00,
2013-02-15 05:11:00,68.0,67.0,29.95,South,172,2.0,6.0,96,-99.99,,,-99.99,,2013-02-15 10:11:00,
2013-02-15 05:21:00,68.0,67.0,29.96,NW,315,4.0,10.0,96,-99.99,,,-99.99,,2013-02-15 10:21:00,
2013-02-15 05:31:00,68.0,67.0,29.96,WNW,291,4.0,8.0,96,-99.99,,,-99.99,,2013-02-15 10:31:00,
2013-02-15 05:42:00,68.0,67.0,29.96,WNW,291,4.0,8.0,96,-99.99,,,-99.99,,2013-02-15 10:42:00,
2013-02-15 05:52:00,68.0,67.0,29.97,NW,315,6.0,15.0,96,-99.99,,,-99.99,,2013-02-15 10:52:00,
2013-02-15 06:01:00,68.0,67.0,29.97,NNW,338,3.0,8.0,96,-99.99,,,-99.99,,2013-02-15 11:01:00,
2013-02-15 06:11:00,68.0,67.0,29.97,NNW,338,3.0,8.0,96,-99.99,,,-99.99,,2013-02-15 11:11:00,
2013-02-15 06:23:00,68.0,67.0,29.98,ESE,120,2.0,6.0,96,-99.99,,,-99.99,,2013-02-15 11:23:00,
2013-02-15 06:32:00,68.0,67.0,29.98,South,186,3.0,7.0,96,-99.99,,,-99.99,,2013-02-15 11:32:00,
2013-02-15 06:42:00,68.0,67.0,29.98,South,186,3.0,7.0,96,-99.99,,,-99.99,,2013-02-15 11:42:00,
2013-02-15 06:52:00,68.0,67.0,29.97,South,179,4.0,10.0,95,-99.99,,,-99.99,,2013-02-15 11:52:00,
2013-02-15 07:02:00,68.0,67.0,29.97,WSW,239,4.0,8.0,96,-99.99,,,-99.99,,2013-02-15 12:02:00,
2013-02-15 07:11:00,68.0,67.0,29.97,WSW,239,4.0,8.0,96,-99.99,,,-99.99,,2013-02-15 12:11:00,
2013-02-15 07:21:00,68.0,67.0,29.98,East,87,3.0,10.0,96,-99.99,,,-99.99,,2013-02-15 12:21:00,
2013-02-15 07:32:00,68.0,67.0,29.99,ESE,117,3.0,8.0,96,-99.99,,,-99.99,,2013-02-15 12:32:00,
2013-02-15 07:42:00,68.0,67.0,29.99,ESE,117,3.0,8.0,96,-99.99,,,-99.99,,2013-02-15 12:42:00,
2013-02-15 07:52:00,68.0,67.0,30.00,WNW,291,4.0,11.0,95,-99.99,,,-99.99,,2013-02-15 12:52:00,
2013-02-15 08:02:00,68.0,67.0,29.99,South,172,4.0,9.0,95,-99.99,,,-99.99,,2013-02-15 13:02:00,
2013-02-15 08:11:00,68.0,67.0,29.99,South,172,4.0,9.0,95,-99.99,,,-99.99,,2013-02-15 13:11:00,
2013-02-15 08:22:00,69.0,68.0,30.00,WNW,287,3.0,9.0,95,-99.99,,,-99.99,,2013-02-15 13:22:00,
2013-02-15 08:32:00,69.0,68.0,30.01,SE,143,5.0,10.0,95,-99.99,,,-99.99,,2013-02-15 13:32:00,
2013-02-15 08:42:00,69.0,68.0,30.01,SE,143,5.0,10.0,95,-99.99,,,-99.99,,2013-02-15 13:42:00,
2013-02-15 08:52:00,69.0,68.0,30.01,ENE,60,5.0,10.0,95,-99.99,,,-99.99,,2013-02-15 13:52:00,
2013-02-15 09:01:00,69.0,67.0,30.01,SSW,210,4.0,10.0,93,-99.99,,,-99.99,,2013-02-15 14:01:00,
2013-02-15 09:12:00,69.0,67.0,30.01,SSW,210,4.0,10.0,93,-99.99,,,-99.99,,2013-02-15 14:12:00,
2013-02-15 09:21:00,69.0,66.0,30.01,ENE,75,5.0,14.0,90,-99.99,,,-99.99,,2013-02-15 14:21:00,
2013-02-15 09:32:00,69.0,66.0,30.00,SSE,160,5.0,9.0,89,-99.99,,,-99.99,,2013-02-15 14:32:00,
2013-02-15 09:42:00,69.0,66.0,30.00,SSE,160,5.0,9.0,89,-99.99,,,-99.99,,2013-02-15 14:42:00,
2013-02-15 09:52:00,69.0,65.0,30.01,NW,309,6.0,13.0,88,-99.99,,,-99.99,,2013-02-15 14:52:00,
2013-02-15 10:01:00,71.0,67.0,30.00,North,3,9.0,17.0,86,-99.99,,,-99.99,,2013-02-15 15:01:00,
2013-02-15 10:11:00,71.0,67.0,30.00,North,3,9.0,17.0,86,-99.99,,,-99.99,,2013-02-15 15:11:00,
2013-02-15 10:21:00,69.0,64.0,30.01,NNE,25,11.0,16.0,85,-99.99,,,-99.99,,2013-02-15 15:21:00,
2013-02-15 10:32:00,69.0,64.0,30.00,NE,42,12.0,17.0,85,-99.99,,,-99.99,,2013-02-15 15:32:00,
2013-02-15 10:42:00,71.0,67.0,30.01,NNE,30,10.0,16.0,86,-99.99,,,-99.99,,2013-02-15 15:42:00,
2013-02-15 10:52:00,71.0,67.0,30.01,NNE,30,10.0,16.0,86,-99.99,,,-99.99,,2013-02-15 15:52:00,
2013-02-15 11:02:00,71.0,66.0,30.01,North,6,7.0,13.0,84,-99.99,,,-99.99,,2013-02-15 16:02:00,
2013-02-15 11:11:00,71.0,66.0,30.01,North,6,7.0,13.0,84,-99.99,,,-99.99,,2013-02-15 16:11:00,
2013-02-15 11:22:00,72.0,67.0,30.01,North,3,5.0,11.0,84,-99.99,,,-99.99,,2013-02-15 16:22:00,
2013-02-15 11:32:00,71.0,66.0,30.01,WNW,302,4.0,8.0,84,-99.99,,,-99.99,,2013-02-15 16:32:00,
2013-02-15 11:42:00,71.0,66.0,30.01,WNW,302,4.0,8.0,84,-99.99,,,-99.99,,2013-02-15 16:42:00,
2013-02-15 11:52:00,71.0,66.0,30.02,SW,225,2.0,6.0,85,-99.99,,,-99.99,,2013-02-15 16:52:00,
2013-02-15 12:01:00,72.0,67.0,30.01,South,177,3.0,7.0,85,-99.99,,,-99.99,,2013-02-15 17:01:00,
2013-02-15 12:11:00,72.0,67.0,30.01,NNW,347,2.0,6.0,84,-99.99,,,-99.99,,2013-02-15 17:11:00,
2013-02-15 12:21:00,72.0,67.0,30.01,NNW,347,2.0,6.0,84,-99.99,,,-99.99,,2013-02-15 17:21:00,
2013-02-15 12:32:00,72.0,67.0,30.01,NNE,21,3.0,8.0,84,-99.99,,,-99.99,,2013-02-15 17:32:00,
2013-02-15 12:42:00,72.0,67.0,30.01,NNE,21,3.0,8.0,84,-99.99,,,-99.99,,2013-02-15 17:42:00,
2013-02-15 12:52:00,72.0,67.0,30.00,East,94,3.0,5.0,84,-99.99,,,-99.99,,2013-02-15 17:52:00,
2013-02-15 13:02:00,72.0,67.0,29.98,NNE,18,3.0,10.0,84,-99.99,,,-99.99,,2013-02-15 18:02:00,
2013-02-15 13:11:00,72.0,67.0,29.98,NNE,18,3.0,10.0,84,-99.99,,,-99.99,,2013-02-15 18:11:00,
2013-02-15 13:21:00,71.0,66.0,29.98,East,94,3.0,7.0,85,-99.99,,,-99.99,,2013-02-15 18:21:00,
2013-02-15 13:32:00,70.0,66.0,29.98,NNW,336,11.0,17.0,88,-99.99,,,-99.99,,2013-02-15 18:32:00,
2013-02-15 13:42:00,70.0,66.0,29.98,NNW,336,11.0,17.0,88,-99.99,,,-99.99,,2013-02-15 18:42:00,
2013-02-15 13:53:00,69.0,67.0,29.98,NNW,336,16.0,24.0,93,-99.99,,,-99.99,,2013-02-15 18:53:00,
2013-02-15 14:01:00,66.0,64.0,29.98,NW,312,14.0,21.0,93,-99.99,,,-99.99,,2013-02-15 19:01:00,
2013-02-15 14:11:00,66.0,64.0,29.98,NW,312,14.0,21.0,93,-99.99,,,-99.99,,2013-02-15 19:11:00,
2013-02-15 14:22:00,65.0,63.0,29.97,WNW,302,15.0,20.0,94,-99.99,,,-99.99,,2013-02-15 19:22:00,
2013-02-15 14:32:00,66.0,64.0,29.96,WNW,291,13.0,18.0,94,-99.99,,,-99.99,,2013-02-15 19:32:00,
2013-02-15 14:42:00,66.0,64.0,29.96,WNW,291,13.0,18.0,94,-99.99,,,-99.99,,2013-02-15 19:42:00,
2013-02-15 14:52:00,66.0,64.0,29.96,WNW,301,12.0,17.0,93,-99.99,,,-99.99,,2013-02-15 19:52:00,
2013-02-15 15:01:00,66.0,65.0,29.96,WNW,290,15.0,19.0,96,-99.99,,,-99.99,,2013-02-15 20:01:00,
2013-02-15 15:11:00,66.0,65.0,29.96,WNW,290,15.0,19.0,96,-99.99,,,-99.99,,2013-02-15 20:11:00,
2013-02-15 15:21:00,66.0,65.0,29.96,NW,304,16.0,20.0,96,-99.99,,,-99.99,,2013-02-15 20:21:00,
2013-02-15 15:32:00,66.0,65.0,29.96,WNW,291,12.0,15.0,96,-99.99,,,-99.99,,2013-02-15 20:32:00,
2013-02-15 15:42:00,66.0,65.0,29.96,WNW,291,12.0,15.0,96,-99.99,,,-99.99,,2013-02-15 20:42:00,
2013-02-15 15:52:00,66.0,65.0,29.96,NNW,336,12.0,16.0,96,-99.99,,,-99.99,,2013-02-15 20:52:00,
2013-02-15 16:02:00,66.0,65.0,29.96,NNW,332,11.0,13.0,96,-99.99,,,-99.99,,2013-02-15 21:02:00,
2013-02-15 16:11:00,66.0,65.0,29.96,NNW,332,11.0,13.0,96,-99.99,,,-99.99,,2013-02-15 21:11:00,
2013-02-15 16:21:00,66.0,65.0,29.96,WNW,301,9.0,11.0,96,-99.99,,,-99.99,,2013-02-15 21:21:00,
2013-02-15 16:32:00,66.0,65.0,29.96,WNW,297,7.0,11.0,96,-99.99,,,-99.99,,2013-02-15 21:32:00,
2013-02-15 16:42:00,66.0,65.0,29.96,WNW,297,7.0,11.0,96,-99.99,,,-99.99,,2013-02-15 21:42:00,
2013-02-15 16:52:00,67.0,66.0,29.96,NNW,329,8.0,11.0,96,-99.99,,,-99.99,,2013-02-15 21:52:00,
2013-02-15 17:02:00,67.0,66.0,29.96,NNW,339,8.0,12.0,96,-99.99,,,-99.99,,2013-02-15 22:02:00,
2013-02-15 17:11:00,67.0,66.0,29.96,NNW,339,8.0,12.0,96,-99.99,,,-99.99,,2013-02-15 22:11:00,
2013-02-15 17:22:00,66.0,65.0,29.96,NNW,328,7.0,11.0,96,-99.99,,,-99.99,,2013-02-15 22:22:00,
2013-02-15 17:32:00,66.0,65.0,29.96,NW,307,7.0,9.0,96,-99.99,,,-99.99,,2013-02-15 22:32:00,
2013-02-15 17:42:00,66.0,65.0,29.96,NW,307,7.0,9.0,96,-99.99,,,-99.99,,2013-02-15 22:42:00,
2013-02-15 17:52:00,65.0,64.0,29.96,NNW,330,11.0,13.0,96,-99.99,,,-99.99,,2013-02-15 22:52:00,
2013-02-15 18:02:00,66.0,65.0,29.96,NNW,328,11.0,16.0,96,-99.99,,,-99.99,,2013-02-15 23:02:00,
2013-02-15 18:11:00,66.0,65.0,29.96,NNW,328,11.0,16.0,96,-99.99,,,-99.99,,2013-02-15 23:11:00,
2013-02-15 18:21:00,66.0,65.0,29.95,NW,326,11.0,14.0,96,-99.99,,,-99.99,,2013-02-15 23:21:00,
2013-02-15 18:32:00,66.0,65.0,29.95,NNW,333,9.0,13.0,95,-99.99,,,-99.99,,2013-02-15 23:32:00,
2013-02-15 18:42:00,66.0,65.0,29.95,NNW,333,9.0,13.0,95,-99.99,,,-99.99,,2013-02-15 23:42:00,
2013-02-15 18:52:00,66.0,65.0,29.95,NW,323,5.0,9.0,95,-99.99,,,-99.99,,2013-02-15 23:52:00,
2013-02-15 19:02:00,65.0,63.0,29.96,NW,312,9.0,12.0,94,-99.99,,,-99.99,,2013-02-16 00:02:00,
2013-02-15 19:11:00,65.0,63.0,29.96,NW,312,9.0,12.0,94,-99.99,,,-99.99,,2013-02-16 00:11:00,
2013-02-15 19:21:00,66.0,65.0,29.95,NNW,329,6.0,12.0,96,-99.99,,,-99.99,,2013-02-16 00:21:00,
2013-02-15 19:32:00,66.0,65.0,29.95,NNW,340,5.0,9.0,96,-99.99,,,-99.99,,2013-02-16 00:32:00,
2013-02-15 19:42:00,66.0,65.0,29.95,NNW,340,5.0,9.0,96,-99.99,,,-99.99,,2013-02-16 00:42:00,
2013-02-15 19:52:00,66.0,65.0,29.95,North,356,2.0,7.0,95,-99.99,,,-99.99,,2013-02-16 00:52:00,
2013-02-15 20:02:00,66.0,65.0,29.96,NNE,14,0.0,4.0,95,-99.99,,,-99.99,,2013-02-16 01:02:00,
2013-02-15 20:11:00,66.0,65.0,29.96,NNE,14,0.0,4.0,95,-99.99,,,-99.99,,2013-02-16 01:11:00,
2013-02-15 20:21:00,66.0,65.0,29.96,ENE,70,1.0,3.0,95,-99.99,,,-99.99,,2013-02-16 01:21:00,
2013-02-15 20:32:00,67.0,66.0,29.96,North,0,0.0,0.0,95,-99.99,,,-99.99,,2013-02-16 01:32:00,
2013-02-15 20:42:00,67.0,66.0,29.96,North,0,0.0,0.0,95,-99.99,,,-99.99,,2013-02-16 01:42:00,
2013-02-15 20:52:00,67.0,66.0,29.97,NNE,28,0.0,2.0,95,-99.99,,,-99.99,,2013-02-16 01:52:00,
2013-02-15 21:01:00,67.0,66.0,29.96,NNE,30,0.0,2.0,95,-99.99,,,-99.99,,2013-02-16 02:01:00,
2013-02-15 21:11:00,67.0,66.0,29.96,NNE,30,0.0,2.0,95,-99.99,,,-99.99,,2013-02-16 02:11:00,
2013-02-15 21:21:00,67.0,66.0,29.96,ESE,117,4.0,6.0,95,-99.99,,,-99.99,,2013-02-16 02:21:00,
2013-02-15 21:32:00,67.0,66.0,29.96,ESE,107,7.0,9.0,95,-99.99,,,-99.99,,2013-02-16 02:32:00,
2013-02-15 21:42:00,67.0,66.0,29.96,ESE,107,7.0,9.0,95,-99.99,,,-99.99,,2013-02-16 02:42:00,
2013-02-15 21:52:00,67.0,65.0,29.96,ESE,113,2.0,7.0,94,-99.99,,,-99.99,,2013-02-16 02:52:00,
2013-02-15 22:02:00,68.0,66.0,29.96,ENE,65,1.0,5.0,94,-99.99,,,-99.99,,2013-02-16 03:02:00,
2013-02-15 22:11:00,68.0,66.0,29.96,ENE,65,1.0,5.0,94,-99.99,,,-99.99,,2013-02-16 03:11:00,
2013-02-15 22:21:00,67.0,65.0,29.96,NNW,345,3.0,7.0,94,-99.99,,,-99.99,,2013-02-16 03:21:00,
2013-02-15 22:32:00,67.0,66.0,29.96,NNW,328,4.0,6.0,95,-99.99,,,-99.99,,2013-02-16 03:32:00,
2013-02-15 22:42:00,67.0,66.0,29.96,NNW,328,4.0,6.0,95,-99.99,,,-99.99,,2013-02-16 03:42:00,
2013-02-15 22:52:00,67.0,66.0,29.96,NW,322,6.0,8.0,95,-99.99,,,-99.99,,2013-02-16 03:52:00,
2013-02-15 23:01:00,66.0,65.0,29.96,NW,309,8.0,10.0,96,-99.99,,,-99.99,,2013-02-16 04:01:00,
2013-02-15 23:11:00,66.0,65.0,29.95,NW,322,8.0,9.0,96,-99.99,,,-99.99,,2013-02-16 04:11:00,
2013-02-15 23:21:00,66.0,65.0,29.95,NW,322,8.0,9.0,96,-99.99,,,-99.99,,2013-02-16 04:21:00,
2013-02-15 23:32:00,66.0,65.0,29.95,NW,321,8.0,10.0,96,-99.99,,,-99.99,,2013-02-16 04:32:00,
2013-02-15 23:42:00,66.0,65.0,29.95,NW,321,8.0,10.0,96,-99.99,,,-99.99,,2013-02-16 04:42:00,
2013-02-15 23:52:00,66.0,65.0,29.95,NNW,333,7.0,9.0,95,-99.99,,,-99.99,,2013-02-16 04:52:00,